Weather History for Mammoth, CA

Change the Weather History Date:

Sunday, June 30, 2013

  Actual Average Record
Temperature  
Mean Temperature 71 °F -  
Max Temperature 91 °F 76 °F 91 °F (2000)
Min Temperature 51 °F 61 °F 35 °F (2011)
Cooling Degree Days 6    
Growing Degree Days 21 (Base 50)    
Moisture  
Dew Point 36 °F    
Average Humidity 29    
Maximum Humidity 58    
Minimum Humidity 9    
Precipitation  
Precipitation 0.00 in - - ()
Sea Level Pressure  
Sea Level Pressure 30.27 in    
Wind  
Wind Speed 7 mph (West)    
Max Wind Speed 25 mph    
Max Gust Speed 37 mph    
Visibility 10 miles    
Events      
Averages and records for this station are not official NWS values.
T = Trace of Precipitation, MM = Missing Value Source: NWS Daily Summary

Daily Weather History Graph

Daily Weather History Graph

Search for Another Location

Airport:

Trip Planner

Search our weather history database for the weather conditions in past years. The results will help you decide how hot, cold, wet, or windy it might be!

Date:

Astronomy

Jun. 30, 2013 Rise Set
Actual Time 5:37 AM PDT 8:20 PM PDT
Civil Twilight 5:06 AM PDT 8:51 PM PDT
Nautical Twilight 4:27 AM PDT 9:30 PM PDT
Astronomical Twilight 3:43 AM PDT 10:14 PM PDT
Moon 12:32 AM PDT (6/30) 1:45 PM PDT (6/30)
Length of Visible Light 15h 45m
Length of Day
14h 43m
Last Quarter, 44% of the Moon is Illuminated
Jun 30
Last Quarter
Jul 8
New
Jul 15
First Quarter
Jul 22
Full
Jul 29
Last Quarter

Hourly Weather History & Observations

Time (PDT) Temp. Dew Point Humidity Pressure Visibility Wind Dir Wind Speed Gust Speed Precip Events Conditions
12:15 AM 62.6 °F 39.2 °F 42% 30.32 in 10.0 mi West 9.2 mph - N/A   Clear
12:35 AM 62.6 °F 37.4 °F 39% 30.32 in 10.0 mi Calm Calm - N/A   Clear
12:55 AM 62.6 °F 37.4 °F 39% 30.32 in 10.0 mi West 8.1 mph - N/A   Clear
1:15 AM 62.6 °F 37.4 °F 39% 30.31 in 10.0 mi West 9.2 mph - N/A   Clear
1:35 AM 62.6 °F 37.4 °F 39% 30.31 in 10.0 mi West 8.1 mph - N/A   Clear
1:55 AM 59.0 °F 37.4 °F 45% 30.30 in 10.0 mi West 8.1 mph - N/A   Clear
2:15 AM 59.0 °F 37.4 °F 45% 30.30 in 10.0 mi WNW 3.5 mph - N/A   Clear
2:35 AM 59.0 °F 37.4 °F 45% 30.30 in 10.0 mi Calm Calm - N/A   Clear
2:55 AM 59.0 °F 37.4 °F 45% 30.29 in 10.0 mi North 3.5 mph - N/A   Clear
3:15 AM 55.4 °F 37.4 °F 51% 30.29 in 10.0 mi North 3.5 mph - N/A   Clear
3:35 AM 53.6 °F 37.4 °F 54% 30.28 in 10.0 mi North 3.5 mph - N/A   Clear
3:55 AM 53.6 °F 37.4 °F 54% 30.28 in 10.0 mi NW 3.5 mph - N/A   Clear
4:15 AM 53.6 °F 37.4 °F 54% 30.28 in 10.0 mi North 4.6 mph - N/A   Clear
4:35 AM 55.4 °F 37.4 °F 51% 30.29 in 10.0 mi NNW 3.5 mph - N/A   Clear
4:55 AM 55.4 °F 37.4 °F 51% 30.28 in 10.0 mi Calm Calm - N/A   Clear
5:15 AM 55.4 °F 37.4 °F 51% 30.29 in 10.0 mi North 4.6 mph - N/A   Clear
5:35 AM 53.6 °F 37.4 °F 54% 30.29 in 10.0 mi Calm Calm - N/A   Clear
5:55 AM 53.6 °F 37.4 °F 54% 30.30 in 10.0 mi Calm Calm - N/A   Clear
6:15 AM 51.8 °F 37.4 °F 58% 30.30 in 10.0 mi Calm Calm - N/A   Clear
6:35 AM 53.6 °F 37.4 °F 54% 30.30 in 10.0 mi Calm Calm - N/A   Clear
6:55 AM 55.4 °F 39.2 °F 54% 30.30 in 10.0 mi Calm Calm - N/A   Clear
7:15 AM 59.0 °F 39.2 °F 48% 30.30 in 10.0 mi North 3.5 mph - N/A   Clear
7:35 AM 62.6 °F 39.2 °F 42% 30.30 in 10.0 mi Calm Calm - N/A   Clear
7:55 AM 64.4 °F 39.2 °F 40% 30.30 in 10.0 mi Calm Calm - N/A   Clear
8:15 AM 68.0 °F 39.2 °F 35% 30.30 in 10.0 mi Calm Calm - N/A   Clear
8:35 AM 71.6 °F 41.0 °F 33% 30.30 in 10.0 mi SE 5.8 mph - N/A   Clear
8:55 AM 71.6 °F 41.0 °F 33% 30.30 in 10.0 mi SE 5.8 mph - N/A   Clear
9:15 AM 75.2 °F 41.0 °F 29% 30.30 in 10.0 mi SE 3.5 mph - N/A   Clear
9:35 AM 77.0 °F 41.0 °F 28% 30.30 in 10.0 mi SE 4.6 mph - N/A   Clear
9:55 AM 80.6 °F 39.2 °F 23% 30.29 in 10.0 mi Calm Calm - N/A   Clear
10:15 AM 82.4 °F 37.4 °F 20% 30.29 in 10.0 mi NNW 3.5 mph - N/A   Clear
10:35 AM 84.2 °F 35.6 °F 18% 30.28 in 10.0 mi NE 3.5 mph - N/A   Clear
10:55 AM 86.0 °F 33.8 °F 15% 30.28 in 10.0 mi East 5.8 mph - N/A   Clear
11:15 AM 86.0 °F 32.0 °F 14% 30.28 in 10.0 mi East 9.2 mph - N/A   Clear
11:35 AM 87.8 °F 32.0 °F 14% 30.27 in 10.0 mi ESE 10.4 mph 17.3 mph N/A   Clear
11:55 AM 87.8 °F 32.0 °F 14% 30.27 in 10.0 mi SE 5.8 mph - N/A   Clear
12:15 PM 89.6 °F 32.0 °F 13% 30.27 in 10.0 mi SSE 6.9 mph - N/A   Clear
12:35 PM 89.6 °F 30.2 °F 12% 30.26 in 10.0 mi ESE 11.5 mph - N/A   Clear
12:55 PM 91.4 °F 30.2 °F 11% 30.26 in 10.0 mi Calm Calm - N/A   Clear
1:15 PM 91.4 °F 28.4 °F 10% 30.26 in 10.0 mi East 10.4 mph - N/A   Clear
1:35 PM 91.4 °F 24.8 °F 9% 30.25 in 10.0 mi SW 11.5 mph 17.3 mph N/A   Clear
1:55 PM 91.4 °F 24.8 °F 9% 30.25 in 10.0 mi SSW 17.3 mph 24.2 mph N/A   Clear
2:15 PM 91.4 °F 24.8 °F 9% 30.26 in 10.0 mi SW 13.8 mph 26.5 mph N/A   Clear
2:35 PM 91.4 °F 33.8 °F 13% 30.26 in 10.0 mi WSW 8.1 mph 21.9 mph N/A   Clear
2:55 PM 91.4 °F 33.8 °F 13% 30.26 in 10.0 mi WNW 17.3 mph 26.5 mph N/A   Clear
3:15 PM 89.6 °F 35.6 °F 15% 30.26 in 10.0 mi West 20.7 mph 33.4 mph N/A   Clear
3:35 PM 89.6 °F 35.6 °F 15% 30.25 in 10.0 mi West 24.2 mph 34.5 mph N/A   Clear
3:55 PM 89.6 °F 35.6 °F 15% 30.24 in 10.0 mi West 24.2 mph 36.8 mph N/A   Clear
4:15 PM 89.6 °F 35.6 °F 15% 30.24 in 10.0 mi West 21.9 mph 33.4 mph N/A   Clear
4:35 PM 89.6 °F 35.6 °F 15% 30.23 in 10.0 mi WNW 24.2 mph 34.5 mph N/A   Clear
4:55 PM 87.8 °F 35.6 °F 16% 30.23 in 10.0 mi West 23.0 mph 34.5 mph N/A   Clear
5:15 PM 87.8 °F 35.6 °F 16% 30.23 in 10.0 mi West 25.3 mph 33.4 mph N/A   Clear
5:35 PM 87.8 °F 39.2 °F 18% 30.23 in 10.0 mi WNW 23.0 mph 31.1 mph N/A   Clear
5:55 PM 86.0 °F 39.2 °F 19% 30.23 in 10.0 mi WNW 19.6 mph 31.1 mph N/A   Clear
6:15 PM 86.0 °F 39.2 °F 19% 30.23 in 10.0 mi West 21.9 mph 28.8 mph N/A   Clear
6:35 PM 86.0 °F 39.2 °F 19% 30.23 in 10.0 mi West 15.0 mph 23.0 mph N/A   Clear
6:55 PM 84.2 °F 37.4 °F 19% 30.23 in 10.0 mi WSW 10.4 mph 21.9 mph N/A   Clear
7:15 PM 84.2 °F 37.4 °F 19% 30.23 in 10.0 mi SW 10.4 mph 18.4 mph N/A   Clear
7:35 PM 82.4 °F 37.4 °F 20% 30.22 in 10.0 mi SSW 12.7 mph 24.2 mph N/A   Clear
7:55 PM 80.6 °F 35.6 °F 20% 30.23 in 10.0 mi SW 16.1 mph 25.3 mph N/A   Clear
8:15 PM 80.6 °F 35.6 °F 20% 30.23 in 10.0 mi SSW 15.0 mph 26.5 mph N/A   Clear
8:35 PM 80.6 °F 35.6 °F 20% 30.24 in 10.0 mi SSW 8.1 mph 23.0 mph N/A   Clear
8:55 PM 77.0 °F 37.4 °F 24% 30.25 in 10.0 mi NW 12.7 mph 19.6 mph N/A   Clear
9:15 PM 75.2 °F 39.2 °F 27% 30.26 in 10.0 mi NW 11.5 mph 18.4 mph N/A   Clear
9:35 PM 75.2 °F 37.4 °F 25% 30.26 in 10.0 mi SW 10.4 mph - N/A   Clear
9:55 PM 73.4 °F 37.4 °F 27% 30.27 in 10.0 mi West 4.6 mph - N/A   Clear
10:15 PM 75.2 °F 35.6 °F 24% 30.27 in 10.0 mi West 8.1 mph 17.3 mph N/A   Clear
10:35 PM 75.2 °F 35.6 °F 24% 30.27 in 10.0 mi West 5.8 mph 18.4 mph N/A   Clear
10:55 PM 69.8 °F 35.6 °F 28% 30.28 in 10.0 mi ESE 3.5 mph - N/A   Clear
11:15 PM 68.0 °F 37.4 °F 33% 30.29 in 10.0 mi Calm Calm - N/A   Clear
11:35 PM 66.2 °F 35.6 °F 32% 30.29 in 10.0 mi West 6.9 mph - N/A   Clear
11:55 PM 64.4 °F 35.6 °F 34% 30.29 in 10.0 mi North 5.8 mph - N/A   Clear